This is the latest recevied weather packets stored in our database for station/object K3JSE-4. If no packets are shown the sender has not sent any weather packets the latest 10 day(s).
| Time | Temp. | Humidity | Pressure | Rain* | Wind** | Luminosity | Snow |
|---|---|---|---|---|---|---|---|
| 1777814443 | 7.78° C | 56% | 1015.6 hPa | 0 mm | - | - | - |
| 1777814143 | 7.22° C | 54% | 1015.6 hPa | 0 mm | - | - | - |
| 1777813844 | 7.22° C | 58% | 1015.6 hPa | 0 mm | - | - | - |
| 1777813544 | 7.22° C | 57% | 1015.5 hPa | 0 mm | - | - | - |
| 1777813244 | 6.67° C | 57% | 1015.5 hPa | 0 mm | - | - | - |
| 1777812944 | 6.67° C | 57% | 1015.5 hPa | 0 mm | - | - | - |
| 1777812644 | 6.67° C | 57% | 1015.5 hPa | 0 mm | - | - | - |
| 1777812344 | 6.67° C | 57% | 1015.5 hPa | 0 mm | - | - | - |
| 1777812044 | 6.11° C | 58% | 1015.4 hPa | 0 mm | - | - | - |
| 1777811744 | 6.11° C | 58% | 1015.4 hPa | 0 mm | - | - | - |
| 1777811444 | 6.11° C | 59% | 1015.3 hPa | 0 mm | - | - | - |
| 1777811144 | 6.11° C | 57% | 1015.3 hPa | 0 mm | - | - | - |
| 1777810844 | 6.11° C | 60% | 1015.3 hPa | 0 mm | - | - | - |
| 1777810544 | 5.56° C | 59% | 1015.4 hPa | 0 mm | - | - | - |
| 1777810244 | 5.56° C | 59% | 1015.2 hPa | 0 mm | - | - | - |
| 1777809944 | 5.56° C | 59% | 1015.1 hPa | 0 mm | - | - | - |
| 1777809344 | 5.56° C | 59% | 1015.1 hPa | 0 mm | - | - | - |
| 1777809044 | 5° C | 61% | 1015.2 hPa | 0 mm | - | - | - |
| 1777808744 | 5° C | 63% | 1015.1 hPa | 0 mm | - | - | - |
| 1777808444 | 5° C | 62% | 1015 hPa | 0 mm | - | - | - |
| 1777808144 | 5° C | 61% | 1015 hPa | 0 mm | - | - | - |
| 1777807844 | 5° C | 61% | 1014.9 hPa | 0 mm | - | - | - |
| 1777807544 | 5° C | 61% | 1014.9 hPa | 0 mm | - | - | - |
| 1777807244 | 5° C | 61% | 1014.7 hPa | 0 mm | - | - | - |
| 1777806944 | 5.56° C | 61% | 1014.6 hPa | 0 mm | - | - | - |
* Rain latest hour (hover to see other rain measurements)
** Current wind speed in m/s (hover to see current wind gust speed)